Location: Lugrin
(46.4033°N, 6.6674°E)
Time: 11:36:47
(UTC+00:00)

Meteor 1-22 Rocket - Pass Details

Date: 18 September 2020
Orbit: 786 x 941 km, 81.2° (Epoch: 24 October)

Event Time Altitude Azimuth Distance (km) Brightness Sun altitude
Exits shadow 20:43:04 69° 253° (WSW) 965 4.4 -30.1°
Maximum altitude 20:43:28 72° 283° (WNW) 953 4.4 -30.2°
Drops below altitude 10° 20:49:30 10° 8° (N) 2,638 7.1 -31.0°
Sets 20:52:03 0° 10° (N) 3,598 7.9 -31.3°
